Temp
62 65 74 75 75 76 77 77 77 77 77 78 78 78 78 77 77 77 77 77 78 78 79 79 79 79 79 79 78 78 77 76 76 76 76 76 78 78 78 77 76 76 78
63 66 74 74 75 76 76 77 76 75 76 77 78 78 77 77 77 77 77 77 78 78 79 78 78 78 78 77 77 77 76 76 75 74 74 74 75 77 77 76 76 76 77
64 66 69 74 75 75 75 75 75 75 75 76 77 75 73 77 77 77 77 78 78 78 78 77 77 77 77 76 76 76 76 75 74 73 72 70 72 77 77 76 76 77 78
64 66 67 73 74 75 75 75 75 75 76 76 76 76 72 72 74 75 76 77 77 76 76 76 76 76 76 76 76 75 75 74 72 71 70 71 74 78 77 77 77 78 78
63 66 67 72 74 74 75 75 75 75 75 76 76 76 75 75 75 74 76 76 75 74 73 73 73 73 75 75 75 75 74 73 72 71 70 68 72 76 78 77 77 77 76
64 66 69 72 73 74 74 74 75 74 75 75 75 76 75 75 74 73 74 74 74 74 73 73 72 72 74 74 74 74 73 71 71 69 71 72 70 76 76 76 76 76 76
63 65 68 74 74 74 73 74 73 74 75 75 75 74 74 75 75 74 73 73 74 74 74 74 73 72 73 74 73 72 71 68 68 67 67 69 72 76 76 76 76 76 76
62 64 68 71 72 73 71 73 73 74 74 74 73 71 72 73 74 73 73 73 73 73 73 74 74 73 73 72 72 71 69 68 65 64 66 70 74 76 76 75 75 74 74
63 63 63 65 69 71 71 72 72 72 72 72 71 69 67 66 70 72 72 72 71 72 72 73 73 72 72 71 70 69 67 66 61 63 66 65 73 75 75 74 74 73 73
61 62 62 61 62 63 66 70 70 70 69 69 68 67 66 65 65 68 69 70 69 70 71 71 72 71 71 70 69 67 66 65 60 61 62 68 74 75 75 73 73 73 72
62 61 63 62 60 62 65 66 67 68 67 66 65 64 63 62 60 62 65 66 67 68 69 71 71 70 68 67 66 65 62 57 58 59 62 71 74 74 73 73 72 71 71
60 61 62 61 58 60 61 62 63 63 62 61 60 59 60 60 60 61 62 64 65 66 68 68 66 64 59 56 57 58 53 54 56 57 62 71 72 72 71 70 70 70 70
60 61 61 61 58 59 58 58 56 54 58 58 57 57 57 57 57 57 55 53 54 58 55 56 54 53 51 55 52 51 50 52 55 58 67 69 70 70 70 69 68 68 68
59 60 61 60 59 58 54 53 51 53 53 53 55 56 56 53 51 50 48 50 52 52 52 51 52 52 52 51 52 49 49 50 52 55 65 67 68 69 68 68 67 67 66
58 59 59 60 59 58 52 52 50 51 50 50 51 53 55 54 53 52 49 50 50 50 50 48 50 51 51 49 50 51 49 48 50 53 60 63 66 67 67 67 67 66 65
57 58 59 59 59 57 51 50 49 49 50 50 49 50 51 51 52 51 49 48 46 46 47 48 48 48 48 50 49 49 48 49 49 49 54 60 63 64 65 65 65 64 64
58 58 58 58 58 57 55 50 48 48 50 51 52 51 48 47 46 46 46 45 46 47 47 47 47 47 46 48 44 47 48 49 47 49 49 49 50 60 61 62 62 62 62
58 58 58 59 57 57 55 54 50 47 47 48 51 52 51 48 45 43 43 43 44 46 45 45 46 45 44 45 44 43 45 46 46 46 45 45 44 46 54 58 59 60 61
57 58 57 58 56 56 54 54 53 50 47 46 48 48 50 51 49 44 43 42 43 43 43 46 43 46 45 43 44 42 42 43 44 46 42 43 44 44 44 54 56 56 57
56 58 58 58 56 55 53 50 49 50 49 46 48 49 49 47 49 49 47 45 43 42 41 41 42 41 42 45 47 42 39 41 41 41 41 44 42 42 42 42 41 45 55
55 56 57 56 56 53 49 47 45 47 47 47 45 48 49 49 46 44 46 47 46 43 43 44 42 41 39 43 39 38 38 40 40 39 41 41 42 42 41 40 39 39 41
55 56 56 57 55 53 53 52 49 47 46 46 47 48 48 49 48 48 46 44 47 45 46 46 45 42 41 38 35 34 33 37 39 40 39 42 40 40 41 41 39 39 38
51 54 56 56 54 53 53 48 45 44 44 42 44 45 47 47 46 45 48 44 43 45 45 45 44 42 39 39 40 37 31 32 34 36 38 39 39 38 38 38 38 39 38
43 51 56 54 53 52 50 49 46 45 42 43 44 44 44 47 44 46 46 47 45 44 41 42 46 42 43 39 39 41 37 35 32 31 34 35 37 38 36 36 37 38 37
42 44 52 53 51 50 50 48 48 45 41 42 42 42 43 44 45 45 44 45 44 44 42 44 42 42 41 39 37 33 34 35 33 31 29 31 34 36 35 34 34 35 37
40 41 46 47 47 48 47 47 45 41 39 39 39 38 40 41 42 44 43 44 42 43 42 43 43 41 38 37 38 35 34 34 31 30 28 27 28 31 33 35 35 35 35
MSLP
1008.48 1008.40 1008.27 1008.43 1008.53 1008.54 1008.43 1008.65 1008.96 1009.22 1009.19 1009.36 1009.32 1009.21 1009.33 1009.48 1009.69 1009.79 1010.15 1010.29 1010.38 1010.38 1010.63 1010.80 1010.98 1011.15 1011.61 1011.55 1011.97 1012.34 1012.60 1012.87 1013.12 1013.38 1013.46 1013.56 1013.55 1013.82 1013.85 1014.05 1014.07 1014.24 1014.31
1008.01 1008.25 1008.25 1008.44 1008.63 1008.61 1008.66 1008.74 1008.98 1009.18 1009.20 1009.21 1009.20 1009.29 1009.46 1009.44 1009.96 1009.94 1010.12 1010.41 1010.68 1010.62 1010.81 1010.98 1011.23 1011.39 1011.87 1011.90 1012.31 1012.72 1013.04 1013.34 1013.63 1013.93 1014.01 1014.05 1014.12 1014.19 1014.38 1014.54 1014.55 1014.69 1014.78
1008.12 1008.36 1008.56 1008.52 1008.60 1008.73 1008.87 1008.90 1008.91 1009.03 1009.19 1009.21 1009.17 1009.81 1008.58 1009.68 1009.70 1010.20 1010.27 1010.23 1010.61 1010.85 1011.14 1011.33 1011.68 1011.77 1012.07 1012.35 1012.59 1013.04 1013.52 1013.81 1014.05 1014.35 1014.50 1014.57 1014.57 1014.65 1014.76 1015.01 1015.02 1015.13 1015.27
1008.23 1008.36 1008.52 1008.58 1008.71 1008.75 1008.93 1008.93 1008.93 1009.02 1009.20 1009.27 1009.29 1009.53 1010.19 1009.73 1010.36 1010.36 1010.22 1010.55 1010.75 1011.03 1011.51 1011.99 1012.24 1012.43 1012.44 1012.82 1013.07 1013.39 1013.91 1014.12 1014.41 1014.68 1014.92 1014.95 1014.98 1015.02 1015.26 1015.39 1015.48 1015.63 1015.72
1008.19 1008.11 1008.49 1008.61 1008.74 1008.86 1008.90 1008.90 1008.94 1009.10 1009.16 1009.22 1009.42 1009.79 1009.91 1010.41 1010.41 1010.54 1010.56 1010.92 1011.20 1011.20 1011.99 1012.46 1012.70 1012.88 1013.09 1013.29 1013.59 1014.05 1014.36 1014.57 1014.78 1015.10 1015.33 1015.51 1015.46 1015.45 1015.65 1015.82 1016.05 1016.21 1016.29
1008.05 1008.04 1008.23 1008.38 1008.64 1008.83 1008.88 1008.84 1008.89 1009.08 1009.03 1009.12 1009.39 1009.76 1010.08 1010.36 1010.54 1010.51 1010.70 1011.27 1011.52 1011.58 1012.31 1012.55 1012.59 1013.07 1013.67 1013.88 1014.25 1014.58 1014.87 1015.07 1015.18 1015.57 1015.80 1015.98 1016.09 1016.05 1016.18 1016.35 1016.54 1016.69 1016.87
1008.05 1007.96 1007.99 1008.15 1008.41 1008.71 1008.76 1008.81 1008.86 1008.90 1008.80 1009.02 1009.44 1009.83 1010.22 1010.51 1010.54 1010.60 1011.04 1011.43 1011.77 1012.07 1012.66 1013.02 1013.27 1013.29 1013.88 1014.43 1014.83 1015.08 1015.33 1015.62 1015.71 1016.08 1016.25 1016.33 1016.41 1016.48 1016.54 1016.79 1017.01 1017.14 1017.30
1008.09 1008.05 1008.09 1008.31 1008.54 1008.77 1008.87 1008.79 1008.70 1008.90 1008.91 1008.97 1009.53 1010.37 1010.01 1010.63 1010.60 1010.81 1011.03 1011.49 1012.21 1012.69 1013.09 1013.48 1013.51 1013.61 1014.07 1014.91 1015.21 1015.59 1015.81 1016.10 1016.32 1016.57 1016.60 1016.60 1016.80 1016.93 1017.13 1017.37 1017.60 1017.72 1017.91
1008.23 1008.33 1008.44 1008.69 1008.72 1008.98 1008.89 1008.68 1008.87 1009.16 1009.43 1009.52 1009.99 1010.46 1010.29 1009.55 1008.86 1010.41 1011.44 1011.95 1012.48 1013.34 1013.72 1014.01 1014.16 1014.37 1014.85 1015.20 1015.62 1016.08 1016.36 1016.53 1016.80 1016.98 1017.07 1017.22 1017.37 1017.54 1017.66 1017.98 1018.17 1018.39 1018.66
1008.60 1008.63 1008.80 1009.01 1009.17 1009.40 1009.15 1008.98 1009.32 1009.59 1009.98 1010.35 1010.73 1010.88 1011.02 1010.79 1011.34 1011.99 1011.86 1012.77 1013.39 1014.10 1014.39 1014.56 1014.79 1015.07 1015.50 1015.78 1016.04 1016.53 1016.90 1017.11 1017.32 1017.50 1017.64 1017.72 1017.84 1017.95 1018.18 1018.59 1018.76 1018.95 1019.27
1008.78 1008.89 1008.92 1009.31 1009.70 1009.75 1009.75 1009.82 1010.02 1010.25 1010.56 1011.07 1011.32 1011.87 1011.87 1012.12 1011.71 1013.27 1013.23 1013.64 1014.33 1014.79 1015.07 1014.95 1015.18 1015.62 1016.26 1016.58 1016.67 1017.04 1017.48 1017.82 1017.94 1018.17 1018.11 1018.08 1018.21 1018.48 1018.81 1019.14 1019.47 1019.76 1020.07
1008.69 1008.93 1009.03 1009.41 1009.94 1010.17 1010.29 1010.41 1010.55 1010.96 1011.23 1011.65 1012.09 1012.40 1012.73 1012.83 1012.43 1013.54 1014.18 1014.51 1014.98 1015.50 1015.70 1015.78 1015.78 1016.55 1017.05 1017.37 1017.74 1017.67 1018.20 1018.50 1018.51 1018.63 1018.53 1018.50 1018.74 1019.16 1019.61 1019.88 1020.17 1020.37 1020.65
1008.58 1008.91 1009.24 1009.58 1009.98 1010.40 1010.78 1010.97 1011.28 1011.60 1011.89 1012.19 1012.44 1012.83 1013.10 1013.31 1013.72 1014.25 1014.97 1015.31 1015.90 1016.33 1016.28 1016.63 1016.65 1017.46 1017.86 1017.83 1018.39 1018.58 1018.85 1019.11 1019.13 1019.01 1019.00 1019.23 1019.60 1019.88 1020.22 1020.58 1020.85 1021.10 1021.22
1008.36 1008.86 1009.33 1009.70 1010.14 1010.68 1011.02 1011.39 1011.76 1012.04 1012.48 1012.92 1013.00 1013.00 1013.21 1013.97 1014.89 1015.48 1015.97 1016.17 1016.52 1017.04 1016.88 1017.25 1017.44 1018.04 1018.39 1018.49 1018.79 1019.19 1019.41 1019.77 1019.82 1019.65 1019.54 1019.97 1020.32 1020.48 1020.84 1021.11 1021.35 1021.61 1022.01
1008.19 1008.64 1009.19 1009.71 1010.29 1010.96 1011.39 1011.81 1012.09 1012.37 1012.81 1013.39 1013.74 1013.90 1013.99 1014.31 1015.09 1015.96 1016.76 1016.98 1017.16 1017.53 1017.48 1017.78 1018.11 1018.38 1018.69 1019.37 1019.44 1019.65 1019.97 1020.65 1020.53 1020.38 1020.49 1020.90 1021.07 1021.26 1021.40 1021.61 1021.87 1022.12 1022.53
1007.79 1008.14 1008.84 1009.46 1010.10 1010.88 1011.56 1012.08 1012.41 1012.55 1012.88 1013.46 1014.12 1014.42 1014.61 1014.84 1015.50 1016.09 1016.86 1017.48 1017.80 1017.98 1018.18 1018.38 1018.67 1018.77 1019.54 1019.93 1020.38 1020.36 1021.02 1021.26 1021.32 1021.29 1021.35 1021.60 1021.97 1022.20 1022.32 1022.39 1022.59 1022.76 1022.98
1006.76 1007.61 1008.34 1009.20 1009.91 1010.58 1011.41 1012.09 1012.76 1013.01 1013.12 1013.57 1013.98 1014.75 1015.31 1015.63 1015.99 1016.56 1017.29 1017.78 1018.06 1018.22 1018.38 1018.71 1019.23 1019.65 1020.47 1020.58 1021.25 1021.55 1021.60 1021.79 1022.28 1022.20 1022.30 1022.91 1023.20 1023.22 1023.41 1023.46 1023.55 1023.57 1023.52
1006.65 1007.37 1008.16 1008.75 1009.53 1010.41 1011.20 1011.97 1012.62 1013.24 1013.47 1013.68 1014.06 1014.52 1015.22 1015.90 1016.60 1017.28 1017.79 1018.29 1018.49 1018.36 1018.92 1019.11 1019.65 1020.13 1020.81 1021.28 1021.92 1022.34 1022.44 1022.70 1023.02 1023.10 1023.36 1023.79 1024.01 1024.37 1024.33 1024.33 1024.25 1024.26 1024.15
1006.11 1006.99 1007.77 1008.48 1009.26 1010.07 1011.09 1011.85 1012.47 1013.13 1013.63 1013.97 1014.33 1014.70 1015.16 1015.72 1016.28 1017.12 1018.04 1018.59 1018.63 1019.01 1019.63 1019.79 1020.23 1020.64 1021.36 1022.15 1022.51 1023.16 1023.49 1023.51 1023.61 1023.86 1024.25 1024.48 1024.65 1024.93 1025.20 1025.19 1025.09 1024.97 1024.94
1006.02 1006.67 1007.48 1008.22 1009.08 1010.00 1010.97 1011.94 1012.69 1013.33 1013.82 1014.22 1014.49 1014.87 1015.44 1015.88 1016.43 1016.80 1017.75 1018.54 1018.90 1019.87 1020.12 1020.30 1020.93 1021.56 1021.86 1022.37 1023.12 1023.93 1024.15 1024.44 1024.55 1024.68 1024.82 1025.01 1025.33 1025.38 1025.63 1025.98 1025.97 1025.78 1025.49
1005.72 1006.39 1006.98 1007.81 1008.94 1009.68 1010.87 1011.85 1012.87 1013.39 1014.00 1014.49 1014.83 1015.10 1015.43 1015.86 1016.49 1016.97 1017.77 1018.31 1018.99 1019.56 1020.34 1021.11 1021.78 1022.06 1022.76 1022.74 1023.13 1024.45 1024.90 1025.07 1025.08 1025.15 1025.35 1025.55 1025.78 1025.96 1026.07 1026.18 1026.37 1026.53 1026.48
1005.32 1005.95 1006.67 1007.39 1008.33 1009.46 1010.16 1011.21 1012.06 1013.04 1013.99 1014.44 1014.99 1015.43 1015.75 1015.94 1016.50 1017.26 1017.80 1018.45 1018.85 1019.57 1020.30 1020.93 1021.32 1022.04 1022.60 1022.66 1023.54 1024.83 1025.71 1025.87 1025.84 1025.65 1025.66 1025.77 1026.13 1026.30 1026.31 1026.55 1026.65 1026.83 1026.99
1005.84 1006.05 1006.51 1007.11 1007.93 1009.04 1009.94 1011.12 1012.47 1013.42 1014.19 1014.77 1015.18 1015.48 1015.94 1016.22 1016.79 1017.25 1017.52 1017.67 1018.67 1018.93 1019.83 1020.13 1020.50 1021.33 1022.33 1023.02 1023.01 1023.46 1025.44 1025.90 1026.01 1026.11 1025.96 1026.26 1026.25 1026.52 1026.49 1026.90 1027.07 1026.99 1027.09
1007.12 1006.32 1006.66 1007.46 1008.08 1009.02 1009.87 1010.47 1011.45 1012.77 1013.85 1014.51 1014.93 1015.50 1016.03 1016.61 1016.93 1017.39 1017.87 1017.78 1018.58 1019.28 1019.74 1020.35 1020.50 1020.62 1021.26 1022.47 1023.38 1023.28 1023.54 1024.33 1025.56 1026.47 1026.27 1026.35 1026.49 1026.66 1026.69 1026.88 1027.03 1027.25 1027.45
1008.21 1007.33 1006.97 1007.58 1008.34 1009.16 1009.90 1010.67 1011.30 1012.44 1013.51 1014.23 1014.98 1015.55 1016.04 1016.44 1017.06 1017.48 1017.90 1018.12 1018.72 1019.26 1019.82 1020.28 1020.82 1021.27 1021.50 1022.32 1023.03 1023.53 1023.84 1024.43 1024.69 1025.44 1026.24 1026.46 1026.58 1026.58 1026.86 1027.02 1027.14 1027.27 1027.35
1009.25 1008.72 1008.38 1008.42 1008.88 1009.53 1010.16 1010.89 1011.51 1012.35 1013.36 1014.37 1015.11 1015.68 1016.15 1016.59 1016.98 1017.24 1017.92 1018.43 1018.77 1019.88 1019.86 1020.48 1020.64 1021.27 1021.95 1022.55 1023.11 1023.60 1024.09 1024.54 1024.82 1024.98 1025.87 1026.38 1026.64 1026.86 1026.86 1026.96 1027.23 1027.35 1027.51
Wind_Speed
5 7 13 12 10 8 12 11 11 11 12 12 14 14 15 14 15 15 13 13 15 15 16 17 18 20 19 21 20 19 19 18 18 17 15 16 16 17 17 15 14 12 18
7 6 13 12 11 9 8 12 11 11 11 12 13 15 15 16 14 15 15 15 14 16 16 17 18 19 20 21 21 21 20 19 18 16 14 13 16 19 19 17 16 16 18
6 5 6 12 11 10 8 8 12 12 11 11 12 12 11 11 14 14 14 17 16 16 16 16 19 21 22 23 22 22 22 20 19 16 12 5 9 18 18 17 17 19 19
7 5 6 12 12 11 9 9 11 12 13 11 12 11 15 14 11 12 14 17 19 19 20 18 19 21 22 22 22 22 21 21 19 15 7 6 8 18 18 18 18 19 19
7 6 6 13 12 12 12 10 10 10 12 13 12 13 17 18 16 13 14 19 22 25 24 21 18 18 20 22 23 22 22 21 17 12 9 7 6 15 19 18 17 18 17
6 5 9 14 13 13 13 11 11 10 10 11 13 14 16 17 23 22 20 21 22 24 24 25 21 16 19 21 22 21 20 18 14 9 9 10 7 17 20 19 17 19 19
6 4 6 13 13 10 9 11 13 11 10 10 10 9 10 16 17 22 24 23 22 23 22 23 21 21 19 20 20 20 19 17 10 8 7 6 10 19 20 20 20 19 19
7 4 6 9 10 4 3 9 9 10 10 11 10 17 4 14 23 25 26 25 23 22 20 20 20 24 22 19 21 20 18 15 9 7 7 7 14 18 18 20 20 20 21
6 6 6 5 6 3 2 7 15 16 15 21 23 21 23 27 15 29 25 24 23 20 20 19 20 20 21 20 20 18 17 15 8 5 7 5 16 16 17 18 19 21 21
4 5 6 6 5 5 6 13 16 19 20 22 23 21 23 27 19 19 22 21 20 17 18 19 19 20 20 20 20 18 16 14 7 6 5 6 16 17 17 19 17 17 18
5 5 7 7 5 5 8 10 14 17 19 18 19 19 16 9 17 8 16 17 17 14 15 20 20 19 18 17 18 17 12 4 5 4 3 12 16 18 17 17 16 15 17
7 6 8 9 7 5 5 6 8 7 7 7 8 8 7 8 12 8 11 16 14 12 15 17 20 16 11 5 5 11 4 5 4 4 3 16 18 18 17 17 16 16 15
8 6 8 10 7 7 5 5 4 3 4 5 9 8 8 6 7 6 4 5 4 7 4 6 9 5 6 6 5 5 5 5 3 3 10 18 16 16 15 14 14 14 12
11 9 9 10 9 7 4 4 4 5 4 4 4 8 8 6 6 5 4 4 4 2 5 4 5 6 7 8 7 7 7 5 3 3 10 14 14 14 15 14 13 12 10
14 10 10 11 10 9 5 5 4 5 4 5 4 5 6 8 8 7 5 3 4 3 4 5 5 6 7 6 6 9 8 6 7 4 7 14 14 12 12 12 11 11 10
12 13 12 12 11 11 7 6 4 5 6 5 4 4 5 5 7 7 6 4 4 3 4 4 4 6 6 6 7 8 8 7 8 7 6 9 13 12 12 11 10 10 10
16 14 13 13 12 12 11 7 4 4 5 6 6 6 6 5 5 6 4 4 4 4 6 6 7 7 6 7 8 6 7 7 7 8 8 6 6 12 11 10 9 9 8
14 16 14 12 14 12 10 8 5 4 4 5 6 6 8 7 6 5 4 4 4 4 4 5 5 6 6 6 5 5 5 6 7 8 7 5 5 5 7 10 9 8 8
16 18 16 14 15 13 10 7 7 6 4 4 4 5 8 8 8 7 5 3 5 5 4 5 4 4 7 6 7 5 4 5 5 6 6 6 6 5 4 7 9 9 8
15 18 18 12 14 13 9 6 5 5 3 3 3 4 7 6 7 8 6 5 5 4 4 5 5 5 4 7 8 7 5 4 4 4 5 4 5 5 5 5 4 4 8
14 18 17 15 14 12 9 7 4 6 4 3 3 5 6 6 7 7 5 7 6 6 5 6 4 8 3 6 5 4 5 5 5 4 3 3 4 4 4 4 3 3 3
17 18 17 16 15 11 9 7 4 5 3 3 3 4 5 8 8 9 9 7 8 7 9 8 5 3 2 1 5 4 2 2 3 2 2 2 3 2 3 3 4 3 3
6 13 16 15 16 12 12 9 7 7 5 3 3 4 4 6 7 6 8 8 6 6 6 8 7 7 4 0 2 6 3 4 2 1 1 2 3 2 2 2 2 3 3
8 1 12 12 14 11 13 11 16 9 8 4 4 4 4 5 6 5 6 8 7 5 7 4 6 6 4 6 2 2 4 5 4 1 1 1 1 3 3 2 3 2 2
11 8 6 11 11 11 11 9 9 9 5 5 6 8 6 4 4 5 5 6 5 4 5 6 5 3 3 3 3 2 2 2 2 4 3 2 0 2 2 2 3 2 2
12 12 8 9 9 9 9 9 10 12 10 8 6 5 4 3 3 6 4 4 7 4 5 4 6 7 4 4 3 3 2 2 2 3 3 1 2 2 2 2 3 2 2
Wind_Direction
225 184 183 187 192 187 179 173 175 186 179 186 184 176 161 150 141 141 147 144 143 146 148 143 144 134 130 123 119 113 102 98 95 95 92 93 97 92 89 81 73 85 91
148 176 182 187 193 189 194 182 174 183 193 200 202 192 169 146 139 146 149 147 147 144 146 145 139 135 130 120 114 109 104 97 94 84 86 94 94 96 91 85 82 86 85
135 168 193 190 191 196 198 201 187 191 197 211 209 177 193 143 142 143 145 145 141 134 133 133 129 127 123 118 110 105 104 96 86 73 69 75 90 95 94 88 92 90 90
154 168 179 195 197 200 206 208 199 201 213 219 224 195 150 151 170 153 153 142 136 128 120 114 115 115 113 112 108 106 101 93 83 71 59 55 95 100 99 96 90 90 89
175 170 182 198 202 207 215 221 213 210 222 223 221 196 182 173 154 153 160 136 125 112 106 92 90 108 114 111 109 107 101 94 84 79 75 57 61 100 96 89 90 91 90
169 180 196 194 202 210 216 227 230 218 221 219 219 211 203 189 167 164 146 124 117 114 123 121 114 117 114 111 109 106 100 90 84 76 74 87 82 94 94 94 96 95 94
150 172 184 196 196 195 204 228 234 210 207 205 211 210 214 189 167 141 126 112 105 109 109 112 119 124 115 108 108 103 96 84 82 78 69 71 95 93 91 90 90 92 93
141 158 94 125 130 136 315 245 233 189 195 181 159 80 264 199 159 134 118 112 108 108 110 111 115 118 118 115 108 104 97 90 79 77 72 75 84 90 89 87 85 85 82
140 130 112 98 104 100 130 188 140 128 140 113 114 104 89 61 132 117 111 105 104 110 114 111 109 115 117 114 107 103 100 94 83 79 79 72 97 102 101 92 87 84 78
146 147 125 102 92 71 68 133 138 128 121 119 110 108 105 99 48 62 88 99 105 111 114 112 110 109 114 112 109 105 99 87 78 75 70 96 110 106 103 94 88 85 79
151 150 124 116 100 91 101 91 112 124 120 115 112 112 107 111 102 62 79 94 98 112 117 116 110 112 108 104 105 101 91 77 77 66 79 117 113 101 98 97 99 96 87
166 154 135 129 120 87 93 93 99 90 99 102 92 87 95 106 103 106 100 97 111 123 129 117 109 105 89 77 77 88 71 70 74 72 84 101 101 98 93 90 91 94 86
162 156 151 138 126 117 115 110 93 78 88 100 111 112 95 86 80 90 67 73 63 66 62 67 90 70 84 95 77 73 77 63 51 65 83 83 94 96 99 93 92 84 94
168 162 155 144 136 131 123 106 113 110 91 80 82 110 117 100 80 67 71 74 80 47 97 90 90 96 81 74 91 82 71 61 46 39 80 80 96 100 97 97 92 88 89
176 164 162 151 147 146 129 123 125 122 109 104 92 86 113 124 123 116 115 102 91 80 70 89 95 98 93 74 65 87 68 55 52 52 80 81 89 100 103 101 99 94 89
175 172 162 161 156 151 143 143 138 129 129 113 103 113 95 112 129 132 129 128 118 122 108 94 99 88 71 88 73 68 74 63 54 50 70 71 76 77 89 90 87 88 89
188 165 169 162 159 159 155 143 136 144 135 138 131 114 107 103 114 114 110 108 129 123 105 93 86 90 90 79 73 69 76 70 61 64 68 64 56 74 81 85 83 78 84
174 180 177 164 162 159 154 151 141 142 136 130 134 134 132 116 111 101 106 126 134 100 105 99 100 100 90 98 93 70 73 75 75 65 70 67 62 43 61 77 74 77 74
180 181 182 169 162 156 150 145 145 143 128 123 120 129 132 131 132 119 116 110 96 82 78 116 74 99 116 99 95 72 64 72 74 86 79 74 75 71 48 75 74 68 63
178 182 183 171 163 148 137 121 111 127 107 113 121 131 141 135 134 133 129 125 105 107 90 69 80 47 87 111 93 71 50 56 65 71 89 87 85 81 78 67 39 24 72
170 178 176 165 167 149 143 141 137 160 148 132 137 141 142 144 140 121 131 137 137 129 129 129 112 119 80 119 99 53 39 39 70 76 71 83 84 83 91 88 69 37 24
177 179 178 176 164 167 159 154 136 141 123 116 110 127 137 143 146 154 153 151 152 138 145 150 139 122 91 36 112 97 86 356 23 50 97 145 146 119 109 98 90 80 53
144 178 181 174 164 164 155 118 94 85 77 57 116 116 155 151 161 153 158 142 147 135 161 159 151 147 143 7 94 132 119 209 144 1 180 245 159 157 122 128 121 108 99
13 334 169 158 161 154 152 150 155 168 157 168 151 123 116 148 128 145 157 141 158 153 149 176 169 134 140 158 152 115 83 142 157 178 318 255 182 196 178 181 140 149 145
17 16 122 146 147 146 154 159 153 142 104 120 125 125 124 105 140 141 141 132 131 146 143 149 117 98 96 140 83 143 98 60 93 133 177 215 220 207 198 183 171 174 168
27 28 51 99 114 132 136 144 147 138 135 133 137 131 134 125 126 134 134 139 126 150 142 149 148 137 117 97 98 69 89 162 191 139 123 157 166 241 191 167 185 187 180